Culpeper, VA (22701)

9:08 AM EDT on August 29, 2015 (GMT -0400)
Redwood Lakes | | Change Station
CLOSE
Current Station
Personal Weather Station
Location: Culpeper, VA
Elevation: 416 ft
Nearby Weather Stations

Elev 416 ft 38.47 °N, 78.02 °W | Updated 2 seconds ago

Clear
Clear
69.8 °F
Feels Like 69.8 °F
N
1.3
Wind Variable Wind from South
Gusts 2.5 mph

Today
High -- | Low -- °F
--% Chance of Precip.
Yesterday
High -- | Low -- °F
Precip. -- in
6:38 AM 7:46 PM
Full, 100% visible
Pressure 30.22 in
Visibility 10.0 miles
Clouds Scattered Clouds 8500 ft
Dew Point 63 °F
Humidity 80%
Rainfall 0.00 in
Snow Depth Not available.
UV 2.0 out of 12
Pollen 9.50 out of 12
Air Quality Not available.
Flu Activity Not available.
METAR KCJR 291250Z AUTO 18003KT 10SM SCT085 20/17 A3022 RMK AO2 T01980166
Pressure 30.22 in
Visibility 10.0 miles
Clouds Scattered Clouds 8500 ft
Dew Point 63 °F
Humidity 80%
Rainfall 0.00 in
Snow Depth Not available.
UV 2.0 out of 12
Pollen 9.50 out of 12
Air Quality Not available.
Flu Activity Not available.
METAR KCJR 291250Z AUTO 18003KT 10SM SCT085 20/17 A3022 RMK AO2 T01980166

10-Day Weather Forecast

×

Almanac

Astronomy

Aug. 29, 2015 Rise Set
Actual Time
Civil Twilight
Nautical Twilight
Astronomical Twilight
Moon
Length of Visible Light
Length of Day
Tomorrow will be .
, % of the Moon is Illuminated

Today's Extremes

State Highs State Lows

Community

WunderPhotos

Upload Photos

1,850,681 photos uploaded!

WunderBlogs® & News

Nearby

Air Quality

  Air Quality AQ Index Pollutant
Not available.

Snow Depth

Station Depth Elevation

Earthquake Activity

City Distance Mag. Time & Date
Minimum magnitude displayed is 2.5.

Coastal Water Temperatures

Place Temperature

Stations

Nearby Weather Stations

Station Location Temp. Windchill Dew Point Humidity Wind Precip. Elev Updated Type